Disclaimer

Please do not use the information listed here in-flight or in-navigation, as they are not provided to us by the airports but are provided by volunteers, so they might be outdated.

Search


Regions


Airport information page

No radio frequency information is available.

Airport informations:
Latitude: 42° 55' 58.11" S
Longitude: 072° 41' 56.81" W
Elevation: 13 feet - 4 meters
Operating hours: From sunrise to sunset (SR-SS)
Operating agency: Civil government, landing fees and diplomatic clearance may be required
Timezone: UTC-4(-3DT)
Fuel: N/A

Runway information:
13/31 - 4670 x 65 feet< - >1423 x 20 meters

Recent METARs:
SCTN 200600Z AUTO 16005KT 130V190 //// R/////// // NCD 13/12 Q1013
SCTN 200600Z AUTO 16005KT 130V190 //// R/////// // NCD 13/12 Q1013
SCTN 200700Z AUTO VRB01KT //// R/////// // BKN013 12/11 Q1012

Airport on the map: